Weather History for Roatan, Honduras

Change the Weather History Date:

Sunday, August 4, 2013

  Actual Average Record
Temperature  
Mean Temperature 81 °F -  
Max Temperature 90 °F 86 °F 90 °F (2012)
Min Temperature 72 °F 78 °F 32 °F (1999)
Cooling Degree Days 16    
Growing Degree Days 31 (Base 50)    
Moisture  
Dew Point 75 °F    
Average Humidity 72    
Maximum Humidity 84    
Minimum Humidity 57    
Precipitation  
Precipitation 0.12 in - - ()
Sea Level Pressure  
Sea Level Pressure 29.95 in    
Wind  
Wind Speed 12 mph ()    
Max Wind Speed 25 mph    
Max Gust Speed 29 mph    
Visibility 6.2 miles    
Events Thunderstorm    
Averages and records for this station are not official NWS values.
T = Trace of Precipitation, MM = Missing Value Source: Averaged Metar Reports

Daily Weather History Graph

Daily Weather History Graph

Search for Another Location

Airport:

Trip Planner

Search our weather history database for the weather conditions in past years. The results will help you decide how hot, cold, wet, or windy it might be!

Date:

Astronomy

Aug. 04, 2013 Rise Set
Actual Time 5:27 AM CST 6:16 PM CST
Civil Twilight 5:05 AM CST 6:39 PM CST
Nautical Twilight 4:38 AM CST 7:05 PM CST
Astronomical Twilight 4:11 AM CST 7:32 PM CST
Moon 3:31 AM CST (8/4) 4:38 PM CST (8/4)
Length of Visible Light 13h 33m
Length of Day
12h 48m
Waning Crescent, 4% of the Moon is Illuminated
Aug 4
Waning Crescent
Aug 6
New
Aug 14
First Quarter
Aug 20
Full
Aug 28
Last Quarter

Hourly Weather History & Observations

Time (CST) Temp. Heat Index Dew Point Humidity Pressure Visibility Wind Dir Wind Speed Gust Speed Precip Events Conditions
6:00 AM 78 °F - 73 °F 81% 29.98 in 6 mi NE 4.6 mph - -   Haze
6:00 AM 78.8 °F - 73.4 °F 83% 29.98 in 6.2 mi NE 4.6 mph - N/A   Scattered Clouds
7:00 AM 80.6 °F 86.2 °F 75.2 °F 84% 29.98 in 5.0 mi East 12.7 mph - N/A   Scattered Clouds
8:00 AM 80.6 °F 86.2 °F 75.2 °F 84% 30.01 in 5.0 mi East 11.5 mph - N/A   Scattered Clouds
9:00 AM 83 °F - 76 °F 74% 30.01 in 6 mi East 12.7 mph - -   Partly Cloudy
9:00 AM 82.4 °F 89.5 °F 75.2 °F 79% 30.01 in 6.2 mi East 12.7 mph - N/A   Scattered Clouds
10:00 AM 82.4 °F 90.9 °F 77.0 °F 84% 30.01 in 6.2 mi East 12.7 mph - N/A   Scattered Clouds
11:00 AM 86.0 °F 95.1 °F 75.2 °F 70% 29.98 in 6.2 mi ESE 12.7 mph - N/A Thunderstorm Thunderstorm
12:00 PM 85 °F - 76 °F 67% 29.98 in 9 mi East 24.6 mph - -   Haze
12:00 PM 86.0 °F 95.1 °F 75.2 °F 70% 29.98 in 6.2 mi East 12.7 mph - N/A   Mostly Cloudy
1:00 PM 87.8 °F 97.6 °F 75.2 °F 66% 29.95 in 6.2 mi East 11.5 mph - N/A   Mostly Cloudy
2:00 PM 87.8 °F 99.7 °F 77.0 °F 70% 29.92 in 6.2 mi East 15.0 mph - N/A   Scattered Clouds
3:00 PM 90 °F - 76 °F 57% 29.90 in 7 mi East 20.7 mph - -   Haze
3:00 PM 91.4 °F 105.1 °F 77.0 °F 63% 29.89 in 6.2 mi East 20.7 mph - N/A   Scattered Clouds
4:00 PM 89.6 °F 99.8 °F 75.2 °F 62% 29.89 in 6.2 mi East 23.0 mph - N/A   Scattered Clouds
5:00 PM 87.8 °F 97.6 °F 75.2 °F 66% 29.89 in 6.2 mi ENE 17.3 mph 28.8 mph N/A   Scattered Clouds
6:00 PM 86 °F - 74 °F 60% 29.91 in 6 mi ENE 20.7 mph - -   Haze
6:00 PM 86.0 °F 93.4 °F 73.4 °F 66% 29.92 in 6.2 mi ENE 20.7 mph - N/A   Mostly Cloudy
7:00 PM 84.2 °F 90.9 °F 73.4 °F 70% 29.92 in 6.2 mi East 18.4 mph - N/A   Mostly Cloudy
8:00 PM 82.4 °F 89.5 °F 75.2 °F 79% 29.95 in 6.2 mi East 20.7 mph - N/A   Mostly Cloudy